Regional Weather Roundup
Issued by NWS

Home | Current Version | Previous Version | Graphics & Text | Print | Product List | Glossary Off
Versions: 1 2 3 4 5 6 7 8 9 10 11 12 13 14 15 16 17 18 19 20 21 22 23 24 25 26 27 28 29 30 31 32 33 34 35 36 37 38 39 40 41 42 43 44 45 46 47 48 49 50

358
ASUS43 KTOP 172208
RWRKS

WEATHER ROUNDUP FOR KANSAS
NATIONAL WEATHER SERVICE GOODLAND KS
500 PM CDT THU AUG 17 2017

NOTE:  "FAIR" INDICATES FEW OR NO CLOUDS BELOW 12,000 FEET WITH NO
SIGNIFICANT WEATHER AND/OR OBSTRUCTIONS TO VISIBILITY.

KSZ001>006-013>018-027>032-041>047-172300-
NORTHWEST KANSAS

CITY           SKY/WX    TMP DP  RH WIND       PRES   REMARKS
GOODLAND       SUNNY     85  60  42 S12       30.03F
HAYS           MOSUNNY   88  52  29 S10       30.00F
HILL CITY      MOSUNNY   90  51  26 S7        29.99F
RUSSELL        SUNNY     88  53  30 S5        29.99F
$$

KSZ061>065-074>080-084>089-172300-
SOUTHWEST KANSAS

CITY           SKY/WX    TMP DP  RH WIND       PRES   REMARKS
DODGE CITY     SUNNY     90  52  27 VRB5      30.03F
ELKHART          N/A     86  67  53 S12         N/A
GARDEN CITY    SUNNY     88  58  36 S12       30.04F
GREAT BEND     SUNNY     87  52  29 SE10      30.01F
LIBERAL        SUNNY     91  57  31 MISG      30.04F
PRATT          SUNNY     88  47  24 SE8       30.02F
$$

KSZ066>073-081>083-090>101-172300-
SOUTHEAST KANSAS

CITY           SKY/WX    TMP DP  RH WIND       PRES   REMARKS
CHANUTE        SUNNY     85  59  41 W9        29.99F
COFFEYVILLE    SUNNY     86  63  45 NW9       29.98F
HUTCHINSON     SUNNY     88  54  31 S5        30.00F
MEDICINE LODGE   N/A     87  53  31 CALM      30.00F
NEWTON         SUNNY     85  60  42 S6        30.01F
PARSONS        SUNNY     85  61  44 SW7       30.00F
WICHITA INTL   MOSUNNY   87  56  34 CALM      30.00F
WICHITA JABRA  SUNNY     85  57  38 S5        30.00F
WICHITA MCCONL SUNNY     87  52  30 CALM      30.00F
WINFIELD       SUNNY     86  62  44 VRB5      30.01F
$$

KSZ007>012-019>026-033>040-048>060-102>105-172300-
NORTHEAST KANSAS

CITY           SKY/WX    TMP DP  RH WIND       PRES   REMARKS
CONCORDIA      SUNNY     86  58  38 CALM      29.97F
EMPORIA        SUNNY     85  58  39 N8        29.99F
LAWRENCE       SUNNY     85  61  44 W6        29.95S
MANHATTAN      SUNNY     87  61  41 NW5       29.97S
MARYSVILLE     SUNNY     88  55  33 NW7       29.96S
OLATHE IND     SUNNY     82  61  48 W12       29.96F
OLATHE EXE     SUNNY     81  60  48 W10       29.96F
SALINA         SUNNY     91  51  25 VRB5      29.98F
TOPEKA BILLARD SUNNY     86  59  39 W6        29.95S
TOPEKA FORBES  SUNNY     86  61  42 W12       29.96F
$$




USA.gov is the U.S. government's official web portal to all federal, state and local government web resources and services.